GFSFLT2_con_lsi_201.txt.gz
Lid_Strength_Index
11 11 12 12 13 12 12 12 12 11 10 10 10 9 10 10 10 10 10 9 9 9 8 7 7 7 6
11 12 12 12 13 13 13 13 13 12 12 10 10 11 11 11 11 10 10 10 10 9 9 8 8 7 7
12 12 12 13 14 14 14 13 12 11 11 11 11 11 11 11 11 11 11 11 10 10 9 9 8 8 7
12 13 13 14 15 16 14 13 13 13 13 12 12 12 12 11 12 12 12 11 10 10 9 9 9 8 7
13 14 14 15 15 15 15 14 14 14 14 14 14 14 14 13 12 12 11 11 10 10 10 10 9 9 8
13 14 15 15 15 15 15 16 17 13 15 16 15 15 14 14 12 11 11 11 10 10 10 10 9 9 9
14 14 15 14 14 14 15 15 16 15 15 17 15 15 14 13 12 11 11 11 10 10 9 10 10 10 10
13 13 13 13 13 14 15 15 15 15 15 18 15 15 14 14 12 12 12 11 11 10 10 10 10 10 10
12 12 13 13 13 14 15 17 17 17 15 16 16 16 15 15 14 12 11 11 11 10 10 10 10 10 11
14 14 13 14 14 14 15 17 17 17 15 16 16 16 18 15 15 14 14 12 11 10 10 10 10 12 12
14 14 15 15 15 14 14 15 16 16 14 15 17 16 17 17 15 15 14 14 14 13 11 10 9 9 11
15 15 15 15 15 14 14 14 14 15 14 14 17 17 17 18 18 15 15 14 14 13 12 10 9 8 7
15 15 15 14 14 14 14 14 14 14 14 14 15 15 15 16 17 16 16 15 13 13 12 11 10 9 10
15 15 14 14 15 15 16 15 16 16 14 13 13 14 16 15 15 16 15 16 14 13 12 10 9 9 9
14 15 15 15 15 15 16 16 16 16 16 15 14 13 13 14 16 15 15 14 13 12 11 11 9 9 9
15 15 15 16 16 15 15 15 16 16 16 15 15 15 15 14 11 14 14 14 12 11 10 12 11 10 9
15 16 15 15 15 16 16 15 16 15 15 15 15 16 17 18 14 9 14 13 13 12 11 11 11 10 10

GFSFLT2_con_lsi_204.txt.gz
Lid_Strength_Index
12 12 13 13 14 14 13 15 16 12 12 11 11 10 10 9 9 9 8 9 9 9 9 9 8 8 7
13 13 13 13 13 14 13 14 15 13 12 11 11 10 10 9 10 9 10 10 10 10 10 9 9 8 7
14 13 14 13 14 14 14 14 13 12 12 12 11 10 10 10 10 10 11 11 11 11 10 9 9 8 8
14 15 14 14 15 16 16 16 16 13 12 12 11 11 11 11 11 12 12 11 11 11 10 10 10 10 9
15 16 16 16 17 16 16 16 15 14 15 14 14 14 14 13 12 12 12 11 11 11 10 10 10 10 9
15 16 17 17 16 15 15 15 16 14 15 16 15 15 15 15 12 12 11 11 11 11 10 10 9 9 9
15 15 15 15 15 15 15 16 16 15 15 16 15 17 16 15 13 12 12 12 11 11 10 10 10 9 9
14 14 14 14 13 14 15 15 15 14 15 17 16 17 16 16 13 12 12 11 11 11 10 10 10 10 9
11 12 12 12 12 14 15 16 16 16 16 17 17 17 16 16 16 13 12 12 11 11 10 10 10 10 11
14 13 13 13 12 14 15 17 16 18 16 16 17 17 19 15 16 16 16 13 11 11 11 11 10 13 14
14 14 14 14 14 14 14 15 17 17 15 16 18 17 17 18 16 16 15 15 15 14 12 11 10 11 13
14 15 15 14 14 14 14 14 14 15 15 15 20 19 18 18 18 16 15 14 15 14 14 12 11 10 9
15 14 14 14 14 14 14 14 14 15 14 15 17 17 18 17 17 17 16 15 14 15 16 14 13 12 13
14 14 14 14 15 15 16 16 18 17 14 14 15 15 18 16 16 16 15 17 15 15 14 13 12 12 12
14 15 15 15 15 15 17 19 21 19 17 17 15 15 15 14 15 15 15 15 14 14 14 14 12 12 11
15 16 17 18 18 18 19 20 19 18 17 17 19 16 16 15 12 15 14 14 13 13 13 15 14 12 11
16 18 19 19 17 17 15 15 16 16 16 15 17 19 18 19 15 10 14 14 14 14 14 14 14 12 11

GFSFLT2_con_lsi_207.txt.gz
Lid_Strength_Index
11 11 12 12 12 12 11 13 15 12 11 11 11 11 11 11 11 10 10 10 9 9 9 8 8 8 7
12 13 13 12 13 13 12 12 15 12 11 11 11 11 10 11 11 10 10 10 10 10 9 9 8 8 8
14 13 13 14 14 14 14 14 13 11 10 11 11 11 10 10 11 10 11 11 10 10 10 10 9 9 9
13 14 14 14 15 15 16 15 15 13 12 12 11 11 11 11 11 11 11 11 10 10 10 10 10 10 9
15 15 15 15 15 15 16 16 15 15 16 16 15 15 14 12 12 11 11 10 10 11 10 10 10 10 9
15 16 16 16 16 16 16 16 17 15 16 16 15 15 14 15 12 11 11 11 11 11 11 10 10 10 10
15 16 17 15 15 16 16 16 16 16 15 16 15 16 15 14 12 11 11 12 11 11 11 11 10 10 10
14 15 14 13 14 15 15 14 14 14 14 16 15 15 15 15 13 12 12 12 12 11 11 11 11 10 10
10 10 11 11 12 13 14 15 16 16 15 16 15 15 15 15 15 12 12 12 12 12 11 11 11 10 12
15 13 13 12 11 13 14 16 15 17 15 15 15 16 18 15 15 16 16 14 12 12 12 11 11 13 14
14 14 14 14 14 14 14 14 15 16 14 15 16 16 17 17 15 15 16 16 15 15 12 12 11 11 14
14 15 14 14 13 13 13 13 13 14 14 14 19 18 19 18 18 15 15 15 15 15 15 13 11 11 11
14 14 14 13 13 13 13 13 13 14 14 14 17 17 18 18 17 16 16 15 14 16 16 15 15 14 14
14 13 13 13 14 14 14 14 16 16 15 15 15 16 18 17 16 17 15 17 15 15 15 14 13 12 13
14 14 14 14 14 14 16 17 19 18 17 17 16 15 15 16 17 16 16 16 15 15 14 14 13 12 12
14 14 15 16 17 17 18 19 17 17 18 19 21 22 20 17 13 16 15 16 14 13 13 15 14 12 12
15 16 18 19 15 18 18 16 15 15 16 19 23 24 20 20 16 11 15 14 14 14 13 14 14 13 12

GFSFLT2_con_lsi_210.txt.gz
Lid_Strength_Index
11 12 13 13 12 12 10 12 12 9 9 10 10 11 10 10 11 10 10 9 10 9 10 9 8 8 8
12 14 14 13 13 13 12 12 13 11 10 10 10 10 9 10 10 10 10 10 10 10 10 9 9 8 8
13 13 15 14 15 14 14 14 12 11 10 10 10 10 10 10 10 10 11 10 10 10 9 9 9 9 8
13 14 14 15 15 15 15 15 14 12 11 11 11 11 10 10 10 11 11 11 10 9 9 9 9 9 8
14 14 15 15 15 16 16 16 15 14 15 15 15 15 15 12 12 11 10 10 10 10 9 9 9 9 9
15 14 16 15 15 15 16 16 17 15 16 16 15 16 15 15 11 10 10 10 10 10 10 10 10 10 10
15 16 16 16 15 16 16 17 16 15 15 16 15 15 14 14 12 11 10 10 11 10 10 10 10 10 10
14 15 15 14 14 14 15 15 15 15 15 17 15 15 15 15 12 11 10 11 11 11 10 10 10 10 10
10 10 10 10 12 14 15 16 16 16 15 15 15 15 14 15 15 12 11 11 11 11 11 11 11 11 12
13 12 12 12 12 14 14 16 16 17 15 15 15 16 17 14 14 14 15 12 12 11 11 11 11 14 15
16 16 16 15 14 14 13 14 16 16 14 15 16 15 16 16 14 14 14 15 16 15 13 13 12 12 14
15 16 15 15 14 14 13 13 13 14 13 14 19 16 18 17 17 15 14 14 15 16 16 13 11 11 11
15 15 14 14 14 14 13 13 13 13 13 14 16 16 17 17 18 17 16 15 15 15 16 15 15 14 15
14 14 14 14 15 14 16 15 16 15 14 14 14 16 21 17 17 17 16 17 15 15 15 14 14 13 13
15 15 14 14 15 15 15 17 18 17 17 17 16 15 15 16 17 17 17 16 16 16 15 16 14 13 13
16 16 16 16 16 16 18 20 20 18 18 18 21 22 22 18 13 16 16 16 15 15 14 15 15 13 12
15 15 17 19 15 18 18 18 19 18 16 19 24 24 21 20 17 11 16 17 15 15 14 15 15 14 12

GFSFLT2_con_lsi_213.txt.gz
Lid_Strength_Index
10 11 11 11 10 12 11 13 12 9 9 10 10 9 8 8 8 8 9 9 9 9 9 9 9 8 8
12 13 13 12 13 13 13 12 14 12 10 9 8 8 8 8 8 8 8 9 9 9 10 9 8 8 8
12 13 13 14 14 13 14 15 13 11 9 8 8 8 8 8 8 8 9 10 10 10 10 9 9 8 8
12 13 13 14 14 14 15 15 15 13 11 11 10 10 9 9 9 9 10 10 10 9 9 9 9 8 8
13 13 14 14 15 15 16 16 15 15 15 15 15 15 15 11 11 10 10 10 9 9 9 9 9 9 9
13 13 14 14 15 16 15 16 17 15 16 16 16 16 15 15 12 10 10 9 9 9 10 9 9 9 9
13 14 16 15 15 16 16 16 16 15 16 16 16 16 15 14 11 11 10 10 9 10 10 10 10 9 9
14 15 15 15 14 14 15 16 15 15 15 17 16 16 16 15 12 11 10 10 10 10 10 10 10 10 9
10 10 10 10 12 14 16 16 17 16 16 16 16 16 16 16 15 12 11 10 10 10 10 10 10 10 11
13 12 12 11 11 14 15 18 17 18 15 16 15 16 17 14 14 14 14 12 11 11 10 11 11 13 14
15 15 15 15 15 15 14 15 18 17 14 15 16 16 17 16 14 14 14 14 15 14 12 12 12 12 14
16 16 15 15 15 15 14 14 14 15 14 14 19 17 20 18 17 14 14 14 14 15 15 14 12 11 11
16 15 14 14 14 14 14 13 14 14 13 14 16 16 18 17 18 16 16 15 14 15 15 15 15 14 15
15 14 14 14 15 14 16 15 17 16 14 14 14 15 20 16 16 16 15 17 15 15 15 15 14 14 14
14 15 14 15 15 15 15 16 18 17 16 16 15 14 15 16 17 16 17 17 16 16 16 16 15 14 14
15 15 14 15 15 16 16 19 20 18 18 18 20 22 22 19 14 17 16 17 16 15 15 17 16 13 13
15 16 17 18 15 18 17 19 18 17 17 18 22 21 23 19 17 11 16 17 15 15 15 15 16 14 13